Live-Position
3D-Globus wird geladen...
Über Starlink 3614
Group: 3 satellites
Beschreibung wird geladen...
Nächste Überflüge
Passes for default location (London). Set your location on the main map for personalized predictions.
Höhenverlauf
Loading altitude history...
No altitude history available
Zweizeiliger Elementsatz
1 51771U 22017D 26127.23227904 -.00000841 00000-0 -34749-4 0 9996
2 51771 53.2172 76.2990 0001554 83.4615 276.6554 15.08838687231441
Epoch: 7. Mai 2026 •
Age: 7 hours
Aktueller Status
Höhe 541.8 km
Geschwindigkeit 7.60 km/s
Subsatellitenpunkt 36.47°N,
60.89°E
Startdatum 25. Feb. 2022
Alter 4.1 years
Typ internet
Startgruppe
Falcon 9 •
Group 4-11 •
43 satellites
Starlink 3622
51768
Starlink 3621 51769
Starlink 3612 51770
Starlink 3623 51772
Starlink 3624 51773
Starlink 3629 51774
Starlink 3620 51775
Starlink 3608 51776
Starlink 3625 51777
Starlink 3615 51778
Starlink 3611 51779
Starlink 3617 51780
Starlink 3580 51781
Starlink 3616 51782
Starlink 3628 51783
Starlink 3632 51784
Starlink 3646 51785
Starlink 3638 51786
Starlink 3619 51787
Starlink 3641 51788
...and 22 more
Technische Details
Klassifizierung Payload
Masse 297.00 kg
Trockenmasse 275.00 kg
Gesamtmasse 297.00 kg
Länge 0.20 m
Durchmesser 2.80 m
Spannweite 9.00 m
Form Box + pan
Hersteller SPXS
Bus-Typ Starlink
Phasenstatus In Orbit
Besitzer/Staat SPXS/US
Most Searched
Loading...